Preview of NWS' New Version of Forecast
This preview is not operational and should not be used for support decisions.

Regional Weather Roundup (RWR)

Issued by National Weather Service (NWS)

                            
000
ASUS44 KMEG 211700
RWRTN 
TENNESSEE HOURLY STATE WEATHER ROUNDUP
NATIONAL WEATHER SERVICE MEMPHIS TN
1200 PM CDT SAT SEP 21 2019

TNZ002-004-019-021-049-052-054-088>092-211800-
WEST TENNESSEE
  
CITY           SKY/WX    TMP DP  RH WIND       PRES   REMARKS
MEMPHIS INTL   FAIR      87  59  38 S8        30.21F                  
NWS MEMPHIS      N/A     89 N/A N/A MISG        N/A                   
JACKSON        FAIR      86  61  42 S12G17    30.24F                  
DYERSBURG      FAIR      87  61  41 S9G17     30.22F                  
$$

TNZ008-025-027-028-033-062-065-066-211800-
NORTH MIDDLE TENNESSEE
  
CITY           SKY/WX    TMP DP  RH WIND       PRES   REMARKS
NASHVILLE      PTSUNNY   87  53  31 W9        30.27F                  
CLARKSVILLE    FAIR      86  55  34 SW7       30.24F                  
SMYRNA         FAIR      86  57  37 SE7       30.28F                  
CROSSVILLE     FAIR      79  51  37 CALM      30.34F                  
$$

TNZ061-075-076-078-094-096-097-211800-
SOUTH MIDDLE TENNESSEE
  
CITY           SKY/WX    TMP DP  RH WIND       PRES   REMARKS
$$

TNZ017-018-042-046-047-211800-
NORTHEAST TENNESSEE
  
CITY           SKY/WX    TMP DP  RH WIND       PRES   REMARKS
TRI CITIES     FAIR      80  60  50 CALM      30.33F                  
$$

TNZ012-013-036-069-073-074-211800-
CENTRAL EAST TENNESSEE
  
CITY           SKY/WX    TMP DP  RH WIND       PRES   REMARKS
KNOXVILLE      FAIR      81  54  39 NW3       30.30F                  
OAK RIDGE      FAIR      81  56  42 CALM      30.32F                  
$$

TNZ083-085-099-211800-
SOUTHEAST TENNESSEE
  
CITY           SKY/WX    TMP DP  RH WIND       PRES   REMARKS
CHATTANOOGA    FAIR      84  58  40 VRB6      30.30F                  
$$

SKY/WX REPORTED AS FAIR MEANS FEW OR NO CLOUDS BELOW
12 THOUSAND FEET.